Location: Unspecified
(0.0000°N, 0.0000°E)
Time: 11:31:35
(UTC+00:00)

LightSail 2 - Pass Details

Date: 21 August 2019
Orbit: 696 x 730 km, 24.0° (Epoch: 07 December)

Event Time Altitude Azimuth Distance (km) Brightness Sun altitude
Exits shadow 04:19:27 60° 179° (S) 815 5.3 -25.3°
Drops below altitude 10° 04:24:11 10° 125° (SE) 2,207 8.2 -24.2°
Sets 04:26:41 0° 121° (ESE) 3,135 9.1 -23.6°
